Regional Weather Roundup
Issued by NWS

Home | Current Version | Previous Version | Graphics & Text | Print | Product List | Glossary On
Versions: 1 2 3 4 5 6 7 8 9 10 11 12 13 14 15 16 17 18 19 20 21 22 23 24 25 26 27 28 29 30 31 32 33 34 35 36 37 38 39 40 41 42 43 44 45 46 47 48 49 50
309
ASUS44 KLIX 210501
RWRLA
LOUISIANA WEATHER ROUNDUP
NATIONAL WEATHER SERVICE NEW ORLEANS LA
1100 PM CST THU NOV 20 2014

NOTE: "FAIR" INDICATES FEW OR NO CLOUDS BELOW 12,000 FEET WITH NO
      SIGNIFICANT WEATHER AND/OR OBSTRUCTIONS TO VISIBILITY.
      SKY/WX - SKY CONDITION AND SIGNIFICANT WEATHER.
      TMP - AIR TEMPERATURE.    DP   - DEWPOINT TEMPERATURE.
      RH  - RELATIVE HUMIDITY.  PRES - PRESSURE.
      HX  - HEAT INDEX.         WCI  - WIND CHILL INDEX.

*  THESE STATIONS ARE NOT NWS OR FAA STATIONS AND ARE NOT UNDER
   NWS QUALITY CONTROL.

LAZ040-048-061>063-065-066-069-210600-
SOUTHEAST LOUISIANA

CITY           SKY/WX    TMP DP  RH WIND       PRES   REMARKS
N.O. AUDUBON     N/A     55  48  78 MISG        N/A
N.O. INTL ARPT PTCLDY    54  45  71 SE8       30.23F
N.O. LAKEFRONT CLEAR     53  46  77 SE9       30.24F
N.O. DOWNTOWN* FAIR      57  43  58 S3        30.24F
SLIDELL        CLEAR     47  42  83 CALM      30.24S
BATON ROUGE    CLEAR     49  44  83 E3        30.23R
BOOTHVILLE     CLEAR     56  48  74 SE5       30.26S
BELLE CHASSE   PTCLDY    53  45  74 SE6       30.23F
BOGALUSA*        N/A     42  39  88 CALM      30.26S
NEW ROADS*     FAIR      52  46  79 SE5       30.22S
GONZALES*      NOT AVBL
HAMMOND*       CLEAR     48  45  87 CALM      30.24F
HOUMA*         CLEAR     49  46  87 SE6       30.23S
PORT FOURCHON* CLEAR     63  50  63 E10       30.27S

$$

LAZ041-044-053-054-210600-
SOUTHWEST LOUISIANA

CITY           SKY/WX    TMP DP  RH WIND       PRES   REMARKS
LAKE CHARLES   CLOUDY    60  51  72 SE12      30.18R
LAFAYETTE      CLEAR     55  47  74 SE3       30.21R
PATTERSON      CLEAR     54  48  82 E7        30.24
SALT POINT       N/A     56  50  80 E6        30.21S
NEW IBERIA     CLEAR     53  48  83 SE7       30.22R
CHENAULT AIRPK MOCLDY    57  51  80 SE9       30.18S

$$

LAZ027-028-210600-
CENTRAL LOUISIANA

CITY           SKY/WX    TMP DP  RH WIND       PRES   REMARKS
FORT POLK      CLOUDY    57  49  76 S12       30.18R
ALEXANDRIA INT CLEAR     53  47  79 SE7       30.19R
ALEXANDRIA     CLEAR     50  47  89 CALM      30.19R

$$

LAZ001-002-210600-
NORTHWEST LOUISIANA

CITY           SKY/WX    TMP DP  RH WIND       PRES   REMARKS
SHREVEPORT     CLOUDY    58  54  86 S6        30.14S
BARKSDALE AFB  MOCLDY    56  52  87 S7        30.15R
DTN SHREVEPORT CLOUDY    57  52  83 S6        30.15R

$$

LAZ014-016-210600-
NORTHEAST LOUISIANA

CITY           SKY/WX    TMP DP  RH WIND       PRES   REMARKS
MONROE         PTCLDY    47  47 100 NE3       30.21R
TALLULAH       CLEAR     46  44  93 SE5       30.20S

$$




USA.gov is the U.S. government's official web portal to all federal, state and local government web resources and services.